This demonstration page uses our WeatherBlox Daily Observations layout. Learn more.

38.89511, -77.03637

Hourly Observations for September 1, 2015

Temp ( °F °C ) Dew Point ( °F °C ) Humidity (%) Winds ( mph kmh ) Pressure ( in mb ) Visibility ( mi km ) Precip ( " mm )
12:52 am 00:52 Partly Cloudy 75 24 70 21 83 83 SW 8 13 30.06 1018 10 16.09344 0 0
1:52 am 01:52 Mostly Clear 73 23 70 21 89 89 SSW 6 9 30.06 1018 10 16.09344 0 0
2:52 am 02:52 Mostly Clear 73 23 70 21 89 89 SSW 6 9 30.06 1018 10 16.09344 0 0
3:52 am 03:52 Mostly Clear 72 22 70 21 94 94 SW 6 9 30.06 1018 10 16.09344 0 0
4:52 am 04:52 Mostly Clear 72 22 70 21 94 94 SW 3 6 30.03 1017 10 16.09344 0 0
5:52 am 05:52 Mostly Clear 72 22 70 21 94 94 SSW 3 6 30.03 1017 10 16.09344 0 0
6:52 am 06:52 Partly Cloudy 72 22 70 21 94 94 WSW 3 6 30.06 1018 10 16.09344 0 0
7:52 am 07:52 Mostly Sunny 75 24 70 21 83 83 Calm 30.06 1018 10 16.09344 0 0
8:52 am 08:52 Mostly Sunny 79 26 68 20 70 70 NNW 6 9 30.06 1018 10 16.09344 0 0
9:52 am 09:52 Mostly Sunny 82 28 70 21 66 66 N 5 7 30.09 1019 10 16.09344 0 0
10:52 am 10:52 Mostly Sunny 88 31 70 21 55 55 N 3 6 30.09 1019 10 16.09344 0 0
11:52 am 11:52 Partly Cloudy 91 33 66 19 44 44 N 8 13 30.06 1018 10 16.09344 0 0
12:52 pm 12:52 Mostly Cloudy 90 32 66 19 46 46 Calm 30.06 1018 10 16.09344 0 0
1:52 pm 13:52 Mostly Cloudy 93 34 66 19 41 41 ENE 3 6 30.06 1018 10 16.09344 0 0
2:52 pm 14:52 Mostly Cloudy 95 35 64 18 36 36 NNW 7 11 30.03 1017 10 16.09344 0 0
3:52 pm 15:52 Partly Cloudy 93 34 66 19 41 41 NE 3 6 30 1016 10 16.09344 0 0
4:52 pm 16:52 Partly Cloudy 93 34 64 18 39 39 Calm 30 1016 10 16.09344 0 0
5:52 pm 17:52 Mostly Cloudy 90 32 72 22 55 55 S 8 13 30 1016 10 16.09344 0 0
6:52 pm 18:52 Mostly Cloudy 88 31 72 22 59 59 S 8 13 30 1016 10 16.09344 0 0
7:52 pm 19:52 Mostly Cloudy 82 28 64 18 55 55 S 10 17 30.03 1017 10 16.09344 0 0
8:52 pm 20:52 Mostly Cloudy 82 28 73 23 74 74 S 5 7 30.03 1017 10 16.09344 0 0
9:52 pm 21:52 Mostly Cloudy 81 27 73 23 79 79 S 5 7 30.06 1018 10 16.09344 0 0
10:52 pm 22:52 Mostly Cloudy 81 27 73 23 79 79 S 5 7 30.06 1018 10 16.09344 0 0
11:52 pm 23:52 Mostly Cloudy 81 27 73 23 79 79 S 3 6 30.06 1018 10 16.09344 0 0

Powered by AerisWeather